{"data":{"norad_id":62040,"epoch":"2026-05-25T03:50:00.060288Z","epoch_age_seconds":57102,"freshness":"FRESH","line1":"1 62040U 24216J   26145.15972292  .00007727  00000+0  29007-3 0  9995","line2":"2 62040  42.9972 191.9927 0000816 281.7956  78.2804 15.27572670 85484","mean_motion":15.2757267,"eccentricity":8.16e-5,"inclination_deg":42.9972,"raan_deg":191.9927,"arg_perigee_deg":281.7956,"mean_anomaly_deg":78.2804,"bstar":0.00029007,"rev_number":8548,"period_min":94.2672010491,"perigee_km":482.51117020792,"apogee_km":483.63091936083,"semimajor_km":6861.2080447844,"source":"CELESTRAK","updated_at":"2026-05-25T13:38:19.525301Z"}}